TimeEDT,TemperatureF,Dew PointF,Humidity,Sea Level PressureIn,VisibilityMPH,Wind Direction,Wind SpeedMPH,Gust SpeedMPH,PrecipitationIn,Events,Conditions,WindDirDegrees,DateUTC
12:53 AM,57.9,52.0,81,30.07,10.0,Calm,Calm,-,N/A,,Scattered Clouds,0,2012-09-10 04:53:00
1:53 AM,54.0,52.0,93,30.07,10.0,Calm,Calm,-,N/A,,Clear,0,2012-09-10 05:53:00
2:53 AM,53.1,52.0,96,30.08,9.0,Calm,Calm,-,N/A,,Clear,0,2012-09-10 06:53:00
3:53 AM,52.0,51.1,97,30.09,6.0,Calm,Calm,-,N/A,,Clear,0,2012-09-10 07:53:00
4:53 AM,51.1,50.0,96,30.10,9.0,Calm,Calm,-,N/A,,Clear,0,2012-09-10 08:53:00
5:18 AM,50.0,48.2,94,30.11,5.0,Calm,Calm,-,N/A,,Partly Cloudy,0,2012-09-10 09:18:00
5:53 AM,50.0,48.9,96,30.12,6.0,Calm,Calm,-,N/A,,Clear,0,2012-09-10 09:53:00
6:53 AM,48.9,48.0,97,30.14,7.0,Calm,Calm,-,N/A,,Clear,0,2012-09-10 10:53:00
7:49 AM,50.0,48.2,94,30.18,4.0,Calm,Calm,-,N/A,,Scattered Clouds,0,2012-09-10 11:49:00
7:51 AM,50.0,48.2,94,30.18,0.5,Calm,Calm,-,N/A,Fog,Fog,0,2012-09-10 11:51:00
7:53 AM,50.0,50.0,100,30.18,0.5,Calm,Calm,-,N/A,Fog,Fog,0,2012-09-10 11:53:00
8:53 AM,52.0,52.0,100,30.20,1.5,Calm,Calm,-,N/A,,Overcast,0,2012-09-10 12:53:00
8:58 AM,53.6,51.8,94,30.20,3.0,Calm,Calm,-,N/A,,Mostly Cloudy,0,2012-09-10 12:58:00
9:08 AM,53.6,51.8,94,30.20,9.0,Calm,Calm,-,N/A,,Clear,0,2012-09-10 13:08:00
9:15 AM,51.8,51.8,100,30.20,10.0,Calm,Calm,-,N/A,,Scattered Clouds,0,2012-09-10 13:15:00
9:53 AM,59.0,50.0,72,30.20,10.0,NNE,4.6,-,N/A,,Scattered Clouds,30,2012-09-10 13:53:00
10:53 AM,62.1,48.0,60,30.21,10.0,North,5.8,-,N/A,,Clear,360,2012-09-10 14:53:00
11:53 AM,64.0,48.0,56,30.21,10.0,NNE,4.6,-,N/A,,Clear,30,2012-09-10 15:53:00
12:53 PM,68.0,44.1,42,30.20,10.0,NW,8.1,16.1,N/A,,Partly Cloudy,320,2012-09-10 16:53:00
1:53 PM,66.0,43.0,43,30.20,10.0,North,8.1,-,N/A,,Mostly Cloudy,360,2012-09-10 17:53:00
2:53 PM,66.2,42.8,43,30.19,10.0,North,12.7,19.6,N/A,,Overcast,10,2012-09-10 18:53:00
3:53 PM,66.0,43.0,43,30.18,10.0,Variable,4.6,-,N/A,,Mostly Cloudy,0,2012-09-10 19:53:00
4:53 PM,70.0,43.0,38,30.17,10.0,Variable,3.5,-,N/A,,Mostly Cloudy,0,2012-09-10 20:53:00
5:53 PM,66.9,44.1,44,30.19,10.0,North,4.6,-,N/A,,Overcast,360,2012-09-10 21:53:00
6:53 PM,68.0,44.1,42,30.19,10.0,Calm,Calm,-,N/A,,Mostly Cloudy,0,2012-09-10 22:53:00
7:53 PM,64.9,46.0,50,30.19,10.0,Calm,Calm,-,N/A,,Clear,0,2012-09-10 23:53:00
8:53 PM,57.9,48.0,70,30.21,10.0,Calm,Calm,-,N/A,,Clear,0,2012-09-11 00:53:00
9:53 PM,54.0,48.9,83,30.22,10.0,Calm,Calm,-,N/A,,Clear,0,2012-09-11 01:53:00
10:53 PM,54.0,48.9,83,30.23,10.0,Calm,Calm,-,N/A,,Clear,0,2012-09-11 02:53:00
11:53 PM,52.0,48.9,89,30.24,10.0,Calm,Calm,-,N/A,,Clear,0,2012-09-11 03:53:00